Location: Gunnison Valley Observatory
(38.5087°N, 106.9386°W)
Time: 05:22:20
(UTC-06:00)

Amateur Radio Satellites - All Passes

Search period start: 31 July 2015 04:52
Search period end: 01 August 2015 04:52
Location: Gunnison Valley Observatory, 38.5087°N, 106.9386°W

Satellite Date Start Highest point End Downlink Frequencies (MHz)
Time Altitude Azimuth
JAS-2 31 Jul 04:56:46 05:04:32 65° 287° (WNW) 05:12:10 435.910
HORYU 2 31 Jul 04:56:49 05:01:19 66° 101° (ESE) 05:05:47 437.375
GONETS M04 31 Jul 05:05:56 05:10:29 16° 80° (E) 05:15:37
AO-7 31 Jul 05:06:06 05:14:25 68° 104° (ESE) 05:22:40 29.400- 29.500
RS-15 31 Jul 05:07:48 05:17:17 28° 32° (NNE) 05:27:22 29.354- 29.394
Gurwin Techsat 1B 31 Jul 05:14:19 05:17:01 14° 297° (WNW) 05:19:26 435.225
Cosmos 2504 31 Jul 05:15:16 05:20:20 19° 296° (WNW) 05:25:16 435.465 / 435.565
CUSAT 1 31 Jul 05:15:34 05:18:29 39° 281° (W) 05:21:01 437.405
ISS 31 Jul 05:56:14 05:58:23 16° 229° (SW) 06:00:27 145.825
Cubesat XI-IV 31 Jul 06:06:34 06:08:08 11° 88° (E) 06:10:04 437.490
MOZHAYETS 4 31 Jul 06:20:29 06:22:00 11° 272° (W) 06:23:12
JUGNU 31 Jul 06:20:55 06:22:57 12° 182° (S) 06:24:59 437.505
CUBESAT XI-V 31 Jul 06:30:21 06:35:03 81° 77° (ENE) 06:39:44 437.345
PRISM 31 Jul 06:31:22 06:34:13 19° 68° (ENE) 06:37:13 437.425
STRAND 1 31 Jul 06:32:39 06:36:58 28° 68° (ENE) 06:41:22 437.568
HORYU 2 31 Jul 06:35:40 06:37:27 12° 296° (WNW) 06:39:00 437.375
JAS-2 31 Jul 06:44:46 06:48:20 13° 304° (NW) 06:51:24 435.910
GONETS M04 31 Jul 06:57:34 07:06:18 89° 272° (W) 07:15:03
AO-7 31 Jul 06:59:53 07:06:39 27° 302° (WNW) 07:13:08 29.400- 29.500
CUTE-I 31 Jul 07:00:08 07:05:07 40° 98° (E) 07:10:07 437.470
RS-15 31 Jul 07:20:02 07:31:54 82° 58° (ENE) 07:44:12 29.354- 29.394
Cosmos 2499 31 Jul 07:30:53 07:37:10 33° 86° (E) 07:44:01 435.465 / 435.565
Cubesat XI-IV 31 Jul 07:43:36 07:48:57 78° 286° (WNW) 07:54:15 437.490
PRISM 31 Jul 08:05:36 08:09:27 34° 263° (W) 08:13:16 437.425
SRMSAT 31 Jul 08:10:35 08:12:38 12° 182° (S) 08:14:40 437.500
STRAND 1 31 Jul 08:11:28 08:16:05 32° 264° (W) 08:20:39 437.568
BEESAT 3 31 Jul 08:32:01 08:35:28 26° 50° (NE) 08:38:54 437.485
CUTE 1.7 + AOD 2 31 Jul 08:35:57 08:37:25 12° 89° (E) 08:39:08 437.475
CUTE-I 31 Jul 08:40:44 08:45:00 24° 293° (WNW) 08:49:07 437.470
CANX-2 31 Jul 08:43:09 08:45:49 17° 91° (E) 08:48:38 2200.000
GONETS M04 31 Jul 08:59:01 09:04:37 17° 299° (WNW) 09:09:43
M-CUBED/EXP-1 PRIME 31 Jul 09:02:53 09:06:26 32° 65° (ENE) 09:10:18 437.505
BRITE-PL 31 Jul 09:03:21 09:07:44 84° 283° (WNW) 09:12:25 437.365/2234.400
AAUSAT CUBESAT 2 31 Jul 09:03:41 09:05:26 13° 90° (E) 09:07:25 437.432
PCSat 31 Jul 09:04:08 09:08:50 32° 110° (ESE) 09:13:39 145.827
DOVE 4 31 Jul 09:13:05 09:17:29 44° 98° (E) 09:22:10 437.250
AIST 2 31 Jul 09:16:59 09:19:33 16° 44° (NE) 09:22:13 435.215
GOMX 1 31 Jul 09:19:25 09:23:57 85° 102° (ESE) 09:28:47 467.674
Cosmos 2499 31 Jul 09:23:10 09:30:07 43° 286° (WNW) 09:37:33 435.465 / 435.565
BEESAT 2 31 Jul 09:28:01 09:32:06 80° 58° (ENE) 09:36:07 435.950
CINEMA 3 31 Jul 09:30:19 09:34:27 30° 96° (E) 09:38:44 145.822/145.860
AUBIESAT-1 31 Jul 09:32:49 09:36:44 60° 70° (ENE) 09:41:01 437.475
RS-15 31 Jul 09:34:04 09:43:24 26° 256° (WSW) 09:52:20 29.354- 29.394
UNISAT 6 31 Jul 09:41:27 09:43:22 13° 65° (ENE) 09:45:31 437.425
HO-68 31 Jul 09:44:05 09:51:16 70° 104° (ESE) 09:58:26 435.675
SO-50 31 Jul 09:51:29 09:56:09 64° 118° (ESE) 10:00:59 436.795
COMPASS 1 31 Jul 09:54:51 09:59:03 63° 100° (E) 10:03:14 437.405
UWE-3 31 Jul 09:55:13 09:58:31 20° 92° (E) 10:01:59 435.000/436.395/437.385
FUNcube-1 31 Jul 09:56:28 09:58:56 15° 90° (E) 10:01:36 145.935
CUBEBUG 2 31 Jul 10:07:56 10:12:10 35° 96° (E) 10:16:30 437.445
SEEDS 31 Jul 10:08:13 10:12:29 70° 284° (WNW) 10:16:41 437.485
CUTE 1.7 + AOD 2 31 Jul 10:09:31 10:13:44 53° 285° (WNW) 10:17:54 437.475
BEESAT 3 31 Jul 10:09:58 10:13:20 25° 247° (WSW) 10:16:36 437.485
Oscar 11 31 Jul 10:09:59 10:13:55 33° 96° (E) 10:17:52 145.826/435.025
QB50P2 31 Jul 10:14:14 10:15:12 11° 65° (ENE) 10:16:25 145.880/145.840
CANX-2 31 Jul 10:17:55 10:21:57 38° 287° (WNW) 10:25:54 2200.000
TIGRISAT 31 Jul 10:22:57 10:26:51 35° 71° (ENE) 10:30:53 435.000
ANTELSAT 31 Jul 10:24:13 10:28:12 37° 72° (ENE) 10:32:20 437.575/2403.000
HUMSAT D 31 Jul 10:29:38 10:31:36 13° 90° (E) 10:33:49 437.325/437.525
DELFI C3 31 Jul 10:30:19 10:34:04 36° 97° (E) 10:37:50 145.870
YUBILEINY 31 Jul 10:33:32 10:39:08 19° 62° (ENE) 10:45:13 435.215
AAUSAT CUBESAT 2 31 Jul 10:37:19 10:41:22 47° 286° (WNW) 10:45:23 437.432
DUCHIFAT 1 31 Jul 10:37:50 10:40:43 19° 69° (ENE) 10:43:44 145.980
M-CUBED/EXP-1 PRIME 31 Jul 10:38:22 10:41:21 20° 264° (W) 10:44:24 437.505
QB50P1 31 Jul 10:40:07 10:43:13 21° 69° (ENE) 10:46:26 145.935-145.965
DX 1 31 Jul 10:40:12 10:41:09 11° 89° (E) 10:42:23 434.975-435.025
NANOSAT C BR1 31 Jul 10:41:42 10:44:50 21° 69° (ENE) 10:48:05 145.865
PCSat 31 Jul 10:47:18 10:52:13 34° 307° (NW) 10:57:07 145.827
DOVE 4 31 Jul 10:51:49 10:55:01 18° 291° (WNW) 10:58:11 437.250
AIST 2 31 Jul 10:54:24 10:58:30 54° 243° (WSW) 11:02:30 435.215
CINEMA 3 31 Jul 11:07:37 11:11:32 26° 289° (WNW) 11:15:30 145.822/145.860
Cosmos 2491 31 Jul 11:08:42 11:12:22 14° 79° (E) 11:16:43 435.465 / 435.565
ZACube-1 31 Jul 11:08:53 11:13:27 84° 283° (WNW) 11:18:02 437.345
AUBIESAT-1 31 Jul 11:11:23 11:12:03 10° 269° (W) 11:12:27 437.475
UNISAT 6 31 Jul 11:15:27 11:19:41 55° 260° (W) 11:24:02 437.425
POLYITAN 1 31 Jul 11:21:34 11:25:43 64° 75° (ENE) 11:29:54 437.675
AIST 1 31 Jul 11:30:26 11:31:58 12° 87° (E) 11:33:45
UWE-3 31 Jul 11:30:55 11:35:10 38° 288° (WNW) 11:39:27 435.000/436.395/437.385
FUNcube-1 31 Jul 11:31:10 11:35:33 49° 286° (WNW) 11:39:58 145.935
COMPASS 1 31 Jul 11:33:01 11:34:14 11° 295° (WNW) 11:35:14 437.405
HO-68 31 Jul 11:33:03 11:38:25 23° 300° (WNW) 11:43:33 435.675
SO-50 31 Jul 11:33:48 11:37:11 18° 317° (NW) 11:40:32 436.795
POPSAT HIP 1 31 Jul 11:38:59 11:43:10 80° 258° (WSW) 11:47:23 437.405
CUBEBUG 2 31 Jul 11:45:02 11:48:40 23° 291° (WNW) 11:52:15 437.445
AISAT 31 Jul 11:45:21 11:49:27 37° 98° (E) 11:53:35 437.250
O/OREOS (USA 219) 31 Jul 11:45:36 11:49:59 44° 64° (ENE) 11:54:24 437.305
QB50P2 31 Jul 11:46:27 11:50:37 62° 260° (W) 11:54:48 145.880/145.840
Oscar 11 31 Jul 11:46:38 11:49:54 20° 291° (WNW) 11:53:03 145.826/435.025
UKube-1 31 Jul 11:46:51 11:51:08 60° 101° (E) 11:55:23 .
BUGSAT 1 31 Jul 11:48:03 11:52:06 79° 77° (ENE) 11:56:09 437.445
TIGRISAT 31 Jul 12:00:40 12:03:46 19° 268° (W) 12:06:47 435.000
ANTELSAT 31 Jul 12:02:13 12:05:12 17° 269° (W) 12:08:04 437.575/2403.000
CUBEBUG 1 31 Jul 12:02:31 12:06:22 32° 97° (E) 12:10:16 437.445
HUMSAT D 31 Jul 12:03:29 12:07:40 49° 286° (WNW) 12:11:50 437.325/437.525
50 SAT 31 Jul 12:04:21 12:08:21 79° 102° (ESE) 12:12:19 437.505
DELFI C3 31 Jul 12:06:17 12:08:52 16° 292° (WNW) 12:11:19 145.870
DUCHIFAT 1 31 Jul 12:12:32 12:16:19 33° 263° (W) 12:20:06 145.980
DX 1 31 Jul 12:13:35 12:17:51 59° 286° (WNW) 12:22:07 434.975-435.025
QB50P1 31 Jul 12:15:14 12:18:56 29° 264° (W) 12:22:37 145.935-145.965
NANOSAT C BR1 31 Jul 12:16:52 12:20:33 29° 264° (W) 12:24:10 145.865
Oscar 19 31 Jul 12:23:14 12:25:26 13° 63° (ENE) 12:27:53 437.125/150
VELOX 1 31 Jul 12:24:28 12:28:53 80° 284° (WNW) 12:33:17 145.980
YUBILEINY 31 Jul 12:28:26 12:37:19 86° 265° (W) 12:46:10 435.215
ESTCUBE 1 31 Jul 12:32:35 12:37:06 87° 102° (ESE) 12:41:35 437.505/2401.250
SPROUT 31 Jul 12:42:05 12:45:38 26° 95° (E) 12:49:16 437.525
TISAT 1 31 Jul 12:57:28 13:00:46 23° 95° (E) 13:04:09 437.305
Cosmos 2491 31 Jul 12:59:18 13:08:04 82° 95° (E) 13:16:51 435.465 / 435.565
AIST 1 31 Jul 13:04:58 13:09:13 50° 281° (W) 13:13:27
Cosmos 2504 31 Jul 13:08:08 13:14:17 23° 66° (ENE) 13:20:53 435.465 / 435.565
Gurwin Techsat 1B 31 Jul 13:15:40 13:17:50 13° 62° (ENE) 13:20:18 435.225
AISAT 31 Jul 13:22:40 13:25:47 19° 292° (WNW) 13:28:47 437.250
UKube-1 31 Jul 13:25:05 13:26:48 12° 295° (WNW) 13:28:17 .
O/OREOS (USA 219) 31 Jul 13:26:11 13:29:05 16° 259° (W) 13:31:49 437.305
CUBEBUG 1 31 Jul 13:39:17 13:42:34 21° 291° (WNW) 13:45:44 437.445
ITAMSAT 1 31 Jul 13:40:51 13:44:29 20° 66° (ENE) 13:48:17 435.822/435.867
ITUPSAT 1 31 Jul 13:51:59 13:54:33 15° 90° (E) 13:57:21 437.325
Oscar 19 31 Jul 13:59:08 14:04:14 74° 259° (WSW) 14:09:23 437.125/150
AO-7 31 Jul 14:14:58 14:19:45 17° 53° (NE) 14:24:55 29.400- 29.500
SPROUT 31 Jul 14:18:06 14:21:39 25° 290° (WNW) 14:25:08 437.525
YUBILEINY 31 Jul 14:28:07 14:33:02 15° 281° (W) 14:37:19 435.215
TISAT 1 31 Jul 14:32:56 14:36:31 27° 289° (WNW) 14:40:03 437.305
BEESAT 31 Jul 14:47:01 14:51:44 59° 100° (E) 14:56:27 436.000
Gurwin Techsat 1B 31 Jul 14:51:53 14:57:12 80° 256° (WSW) 15:02:34 435.225
Cosmos 2504 31 Jul 14:58:57 15:07:22 75° 266° (W) 15:15:58 435.465 / 435.565
Cosmos 2491 31 Jul 14:59:54 15:06:10 20° 297° (WNW) 15:11:59 435.465 / 435.565
JAS-2 31 Jul 15:07:10 15:12:55 50° 70° (ENE) 15:19:29 435.910
SWISSCUBE 31 Jul 15:07:27 15:12:14 77° 283° (WNW) 15:16:59 437.505
ITAMSAT 1 31 Jul 15:18:37 15:23:39 49° 260° (W) 15:28:43 435.822/435.867
DANDE 31 Jul 15:24:43 15:27:52 24° 78° (ENE) 15:31:52 436.750
STARS 31 Jul 15:27:15 15:29:33 14° 91° (E) 15:32:03 437.465
ITUPSAT 1 31 Jul 15:28:10 15:32:51 52° 287° (WNW) 15:37:27 437.325
CUSAT 1 31 Jul 15:49:12 15:53:24 81° 82° (E) 15:59:02 437.405
KKS-1 31 Jul 15:50:45 15:55:03 45° 99° (E) 15:59:21 437.445
HORYU 2 31 Jul 15:53:31 15:57:48 50° 73° (ENE) 16:02:08 437.375
AO-7 31 Jul 16:03:03 16:11:24 79° 71° (ENE) 16:19:48 29.400- 29.500
BEESAT 31 Jul 16:26:27 16:29:08 15° 295° (WNW) 16:31:36 436.000
MOZHAYETS 4 31 Jul 16:37:24 16:40:23 17° 91° (E) 16:43:31
JAS-2 31 Jul 16:53:38 16:58:29 24° 271° (W) 17:03:37 435.910
Cosmos 2504 31 Jul 16:54:48 16:58:27 13° 281° (WNW) 17:01:26 435.465 / 435.565
STARS 31 Jul 17:02:02 17:06:18 47° 287° (WNW) 17:10:32 437.465
DANDE 31 Jul 17:07:47 17:10:56 22° 263° (W) 17:14:41 436.750
GONETS M04 31 Jul 17:09:51 17:17:58 43° 74° (ENE) 17:26:12
Cosmos 2499 31 Jul 17:25:10 17:27:44 12° 57° (ENE) 17:31:03 435.465 / 435.565
Cubesat XI-IV 31 Jul 17:26:17 17:29:51 19° 65° (ENE) 17:33:36 437.490
KKS-1 31 Jul 17:28:32 17:31:21 16° 294° (WNW) 17:34:01 437.445
HORYU 2 31 Jul 17:32:26 17:34:48 14° 270° (W) 17:36:56 437.375
VERMONT LUNAR 31 Jul 17:48:22 17:50:07 14° 147° (SSE) 17:51:57 437.305
PCSat 31 Jul 17:53:25 17:57:29 22° 48° (NE) 18:01:40 145.827
AO-7 31 Jul 17:59:07 18:05:09 20° 269° (W) 18:10:46 29.400- 29.500
MOZHAYETS 4 31 Jul 18:13:28 18:17:51 42° 287° (WNW) 18:22:10
CUTE-I 31 Jul 18:20:25 18:25:41 59° 73° (ENE) 18:30:58 437.470
SO-50 31 Jul 18:24:29 18:29:10 40° 52° (NE) 18:33:45 436.795
CUBESAT XI-V 31 Jul 18:29:17 18:32:48 22° 93° (E) 18:36:26 437.345
Cubesat XI-IV 31 Jul 19:04:18 19:09:34 55° 260° (W) 19:14:51 437.490
GONETS M04 31 Jul 19:06:51 19:14:47 39° 272° (W) 19:22:35
Cosmos 2499 31 Jul 19:14:18 19:22:59 64° 79° (E) 19:31:47 435.465 / 435.565
VERMONT LUNAR 31 Jul 19:23:21 19:26:29 65° 162° (SSE) 19:29:40 437.305
PHONESAT 2.4 31 Jul 19:29:51 19:31:37 13° 145° (SE) 19:33:28 2401.200-2431.200
PCSat 31 Jul 19:36:00 19:41:19 56° 246° (WSW) 19:46:35 145.827
CANX-2 31 Jul 19:36:45 19:37:37 11° 65° (ENE) 19:38:43 2200.000
PRISM 31 Jul 19:49:04 19:52:48 33° 97° (E) 19:56:32 437.425
CUTE-I 31 Jul 20:02:48 20:06:13 16° 270° (W) 20:09:23 437.470
SO-50 31 Jul 20:05:31 20:09:31 24° 248° (WSW) 20:13:18 436.795
CUBESAT XI-V 31 Jul 20:06:12 20:10:19 32° 289° (WNW) 20:14:23 437.345
HO-68 31 Jul 20:11:02 20:17:41 45° 67° (ENE) 20:24:26 435.675
BRITE-PL 31 Jul 20:13:11 20:17:40 85° 258° (WSW) 20:21:54 437.365/2234.400
DOVE 4 31 Jul 20:18:08 20:21:52 34° 72° (ENE) 20:25:38 437.250
STRAND 1 31 Jul 20:22:45 20:27:54 85° 281° (W) 20:32:59 437.568
GOMX 1 31 Jul 20:26:43 20:30:59 77° 77° (ENE) 20:35:09 467.674
CINEMA 3 31 Jul 20:31:48 20:34:51 21° 69° (ENE) 20:38:02 145.822/145.860
COMPASS 1 31 Jul 20:44:36 20:48:24 35° 72° (ENE) 20:52:16 437.405
UWE-3 31 Jul 20:52:40 20:54:27 13° 66° (ENE) 20:56:26 435.000/436.395/437.385
ISS 31 Jul 20:57:30 21:00:22 29° 134° (SE) 21:03:16 145.825
SEEDS 31 Jul 20:58:24 21:02:35 66° 76° (ENE) 21:06:50 437.485
VERMONT LUNAR 31 Jul 21:00:09 21:03:17 57° 357° (N) 21:06:26 437.305
CUTE 1.7 + AOD 2 31 Jul 21:00:26 21:04:42 88° 80° (E) 21:09:01 437.475
Oscar 11 31 Jul 21:03:49 21:07:07 22° 69° (ENE) 21:10:33 145.826/435.025
CUBEBUG 2 31 Jul 21:05:37 21:08:51 23° 69° (ENE) 21:12:14 437.445
PHONESAT 2.4 31 Jul 21:05:43 21:09:10 59° 159° (SSE) 21:12:38 2401.200-2431.200
Cosmos 2499 31 Jul 21:08:31 21:15:37 27° 276° (W) 21:22:27 435.465 / 435.565
CANX-2 31 Jul 21:08:48 21:13:02 66° 259° (W) 21:17:19 2200.000
DELFI C3 31 Jul 21:16:39 21:19:32 19° 69° (ENE) 21:22:32 145.870
PRISM 31 Jul 21:25:10 21:28:01 18° 292° (WNW) 21:30:44 437.425
AAUSAT CUBESAT 2 31 Jul 21:26:00 21:30:11 89° 243° (WSW) 21:34:26 437.432
RS-15 31 Jul 21:41:31 21:52:05 62° 114° (ESE) 22:03:05 29.354- 29.394
DOVE 4 31 Jul 21:57:02 21:59:49 17° 268° (W) 22:02:26 437.250
HO-68 31 Jul 21:59:15 22:05:35 33° 265° (W) 22:11:49 435.675
ZACube-1 31 Jul 22:03:25 22:07:31 62° 75° (ENE) 22:11:45 437.345
CINEMA 3 31 Jul 22:08:19 22:11:56 28° 265° (W) 22:15:33 145.822/145.860
M-CUBED/EXP-1 PRIME 31 Jul 22:19:16 22:23:40 36° 101° (E) 22:27:59 437.505
COMPASS 1 31 Jul 22:21:16 22:24:11 18° 268° (W) 22:27:00 437.405
FUNcube-1 31 Jul 22:25:15 22:29:25 75° 258° (WSW) 22:33:41 145.935
UWE-3 31 Jul 22:26:29 22:30:33 52° 261° (W) 22:34:43 435.000/436.395/437.385
ISS 31 Jul 22:33:54 22:36:47 28° 330° (NNW) 22:39:40 145.825
VERMONT LUNAR 31 Jul 22:36:59 22:40:10 84° 13° (NNE) 22:43:20 437.305
Oscar 11 31 Jul 22:39:21 22:43:10 30° 264° (W) 22:46:58 145.826/435.025
UKube-1 31 Jul 22:40:11 22:44:15 42° 72° (ENE) 22:48:20 .
CUBEBUG 2 31 Jul 22:41:53 22:45:27 27° 265° (W) 22:49:02 437.445
AISAT 31 Jul 22:41:55 22:45:40 29° 70° (ENE) 22:49:30 437.250
PHONESAT 2.4 31 Jul 22:43:41 22:47:10 62° 355° (N) 22:50:40 2401.200-2431.200
50 SAT 31 Jul 22:46:46 22:50:15 33° 73° (ENE) 22:53:49 437.505
AUBIESAT-1 31 Jul 22:48:50 22:53:33 63° 105° (ESE) 22:58:07 437.475
DELFI C3 31 Jul 22:50:49 22:54:25 30° 264° (W) 22:58:01 145.870
HUMSAT D 31 Jul 22:53:21 22:57:29 86° 257° (WSW) 23:01:42 437.325/437.525
CUBEBUG 1 31 Jul 22:57:39 23:01:03 23° 69° (ENE) 23:04:32 437.445
DX 1 31 Jul 23:07:24 23:11:44 84° 257° (WSW) 23:16:06 434.975-435.025
UNISAT 6 31 Jul 23:08:40 23:12:56 34° 97° (E) 23:17:14 437.425
POLYITAN 1 31 Jul 23:10:23 23:11:54 12° 90° (E) 23:13:40 437.675
Cosmos 2491 31 Jul 23:11:53 23:19:46 38° 72° (ENE) 23:27:45 435.465 / 435.565
AIST 1 31 Jul 23:13:44 23:17:32 31° 76° (ENE) 23:21:21
VELOX 1 31 Jul 23:20:20 23:24:44 76° 76° (ENE) 23:29:09 145.980
BEESAT 2 31 Jul 23:20:50 23:23:52 21° 112° (ESE) 23:27:01 435.950
POPSAT HIP 1 31 Jul 23:26:26 23:29:20 18° 93° (E) 23:32:22 437.405
ESTCUBE 1 31 Jul 23:30:29 23:34:59 67° 75° (ENE) 23:39:30 437.505/2401.250
BUGSAT 1 31 Jul 23:33:26 23:35:02 12° 90° (E) 23:36:51 437.445
QB50P2 31 Jul 23:33:38 23:37:00 23° 94° (E) 23:40:27 145.880/145.840
YUBILEINY 31 Jul 23:33:47 23:39:44 22° 82° (E) 23:46:06 435.215
SPROUT 31 Jul 23:35:38 23:38:24 18° 68° (ENE) 23:41:18 437.525
TISAT 1 31 Jul 23:49:15 23:51:33 15° 67° (ENE) 23:54:01 437.305
TIGRISAT 31 Jul 23:51:50 23:56:33 84° 283° (WNW) 00:01:15 435.000
ANTELSAT 31 Jul 23:53:30 23:58:12 78° 284° (WNW) 00:02:56 437.575/2403.000
M-CUBED/EXP-1 PRIME 31 Jul 23:54:17 23:58:15 25° 296° (WNW) 00:02:01 437.505
RS-15 31 Jul 23:54:57 00:05:09 40° 318° (NW) 00:15:35 29.354- 29.394
DUCHIFAT 1 31 Jul 23:58:06 00:02:07 40° 98° (E) 00:06:08 145.980
BEESAT 3 01 Aug 00:00:01 00:04:05 78° 120° (ESE) 00:08:11 437.485
QB50P1 01 Aug 00:01:03 00:05:09 46° 99° (E) 00:09:17 145.935-145.965
NANOSAT C BR1 01 Aug 00:02:25 00:06:31 47° 99° (E) 00:10:38 145.865
VERMONT LUNAR 01 Aug 00:14:02 00:16:41 24° 209° (SSW) 00:19:18 437.305
UKube-1 01 Aug 00:17:57 00:20:37 15° 268° (W) 00:23:06 .
AISAT 01 Aug 00:18:41 00:22:15 23° 265° (W) 00:25:45 437.250
PHONESAT 2.4 01 Aug 00:21:47 00:25:18 80° 12° (NNE) 00:28:48 2401.200-2431.200
50 SAT 01 Aug 00:22:33 00:24:58 15° 268° (W) 00:27:17 437.505
AUBIESAT-1 01 Aug 00:24:58 00:27:44 15° 300° (WNW) 00:30:17 437.475
CUBEBUG 1 01 Aug 00:33:29 00:37:18 28° 264° (W) 00:41:03 437.445
SWISSCUBE 01 Aug 00:38:40 00:39:52 11° 63° (ENE) 00:41:20 437.505
POLYITAN 1 01 Aug 00:44:00 00:48:11 53° 286° (WNW) 00:52:21 437.675
UNISAT 6 01 Aug 00:45:47 00:49:32 23° 291° (WNW) 00:53:09 437.425
AIST 2 01 Aug 00:50:35 00:54:36 44° 116° (ESE) 00:58:40 435.215
AIST 1 01 Aug 00:52:00 00:54:59 18° 271° (W) 00:57:48
ITUPSAT 1 01 Aug 00:57:45 01:00:33 16° 65° (ENE) 01:03:33 437.325
BEESAT 2 01 Aug 00:57:59 01:01:44 33° 308° (NW) 01:05:29 435.950
POPSAT HIP 1 01 Aug 01:01:26 01:05:19 34° 288° (WNW) 01:09:10 437.405
BUGSAT 1 01 Aug 01:06:53 01:10:48 46° 286° (WNW) 01:14:44 437.445
Cosmos 2491 01 Aug 01:08:38 01:16:46 45° 271° (W) 01:24:48 435.465 / 435.565
QB50P2 01 Aug 01:09:13 01:12:53 27° 289° (WNW) 01:16:29 145.880/145.840
SPROUT 01 Aug 01:10:15 01:14:14 37° 263° (W) 01:18:12 437.525
ESTCUBE 1 01 Aug 01:11:24 01:12:23 10° 272° (W) 01:13:04 437.505/2401.250
TISAT 1 01 Aug 01:23:01 01:27:00 43° 261° (W) 01:30:59 437.305
YUBILEINY 01 Aug 01:27:06 01:35:46 72° 279° (W) 01:44:33 435.215
DUCHIFAT 1 01 Aug 01:34:55 01:37:38 16° 292° (WNW) 01:40:11 145.980
QB50P1 01 Aug 01:38:14 01:40:40 15° 293° (WNW) 01:42:56 145.935-145.965
NANOSAT C BR1 01 Aug 01:39:38 01:41:59 14° 293° (WNW) 01:44:11 145.865
BEESAT 3 01 Aug 01:40:55 01:42:36 12° 318° (NW) 01:44:06 437.485
Cosmos 2504 01 Aug 01:40:56 01:43:36 13° 79° (ENE) 01:46:51 435.465 / 435.565
BEESAT 01 Aug 01:51:54 01:56:35 57° 74° (ENE) 02:01:19 436.000
O/OREOS (USA 219) 01 Aug 01:56:11 02:00:37 69° 108° (ESE) 02:05:06 437.305
PHONESAT 2.4 01 Aug 01:59:59 02:03:07 30° 208° (SSW) 02:06:13 2401.200-2431.200
Oscar 19 01 Aug 02:12:12 02:17:07 44° 98° (E) 02:22:04 437.125/150
SWISSCUBE 01 Aug 02:12:19 02:17:07 80° 256° (WSW) 02:21:58 437.505
RS-15 01 Aug 02:14:54 02:22:03 18° 351° (N) 02:29:15 29.354- 29.394
STARS 01 Aug 02:24:15 02:25:30 11° 64° (ENE) 02:27:00 437.465
AIST 2 01 Aug 02:30:15 02:33:24 19° 314° (NW) 02:36:27 435.215
ITUPSAT 1 01 Aug 02:33:20 02:38:03 54° 260° (W) 02:42:47 437.325
KKS-1 01 Aug 02:47:38 02:51:36 34° 71° (ENE) 02:55:39 437.445
Gurwin Techsat 1B 01 Aug 03:09:43 03:14:48 46° 98° (E) 03:19:54 435.225
ISS 01 Aug 03:26:15 03:29:05 27° 29° (NNE) 03:31:56 145.825
Cosmos 2504 01 Aug 03:27:34 03:34:39 88° 97° (E) 03:42:17 435.465 / 435.565
YUBILEINY 01 Aug 03:30:36 03:34:37 13° 303° (WNW) 03:37:59 435.215
BEESAT 01 Aug 03:32:20 03:34:53 14° 270° (W) 03:37:09 436.000
ITAMSAT 1 01 Aug 03:32:43 03:37:52 67° 101° (E) 03:43:01 435.822/435.867
MOZHAYETS 4 01 Aug 03:38:41 03:41:13 15° 66° (ENE) 03:43:57
O/OREOS (USA 219) 01 Aug 03:38:46 03:40:38 12° 308° (NW) 03:42:17 437.305
HORYU 2 01 Aug 03:48:47 03:49:44 11° 89° (E) 03:50:58 437.375
Oscar 19 01 Aug 03:52:15 03:56:13 22° 293° (WNW) 04:00:02 437.125/150
STARS 01 Aug 03:57:08 04:01:27 65° 259° (WSW) 04:05:49 437.465
JAS-2 01 Aug 04:01:54 04:09:37 58° 99° (E) 04:17:12 435.910
AO-7 01 Aug 04:07:13 04:13:58 28° 94° (E) 04:20:56 29.400- 29.500
JUGNU 01 Aug 04:18:47 04:19:45 10° 173° (S) 04:20:47 437.505
KKS-1 01 Aug 04:25:05 04:28:22 19° 267° (W) 04:31:31 437.445
DANDE 01 Aug 04:36:38 04:39:36 28° 98° (E) 04:42:09 436.750
